Year,Month,Day,Hour,Minute,Value (Times are PST for windgust in km/hr)
2016,10,14,00,00,12.90
2016,10,14,00,01,8.10
2016,10,14,00,02,8.10
2016,10,14,00,03,11.30
2016,10,14,00,04,11.30
2016,10,14,00,05,6.40
2016,10,14,00,06,8.10
2016,10,14,00,07,8.10
2016,10,14,00,08,11.30
2016,10,14,00,09,3.20
2016,10,14,00,10,9.60
2016,10,14,00,11,1.60
2016,10,14,00,12,14.50
2016,10,14,00,13,25.70
2016,10,14,00,14,19.30
2016,10,14,00,15,25.70
2016,10,14,00,16,16.10
2016,10,14,00,17,29.00
2016,10,14,00,18,24.20
2016,10,14,00,19,27.40
2016,10,14,00,20,9.60
2016,10,14,00,21,30.60
2016,10,14,00,22,29.00
2016,10,14,00,23,17.70
2016,10,14,00,24,22.50
2016,10,14,00,25,24.20
2016,10,14,00,26,35.40
2016,10,14,00,27,32.20
2016,10,14,00,28,27.40
2016,10,14,00,29,22.50
2016,10,14,00,30,27.40
2016,10,14,00,31,35.40
2016,10,14,00,32,16.10
2016,10,14,00,33,37.00
2016,10,14,00,34,32.20
2016,10,14,00,35,25.70
2016,10,14,00,36,24.20
2016,10,14,00,37,30.60
2016,10,14,00,38,35.40
2016,10,14,00,39,24.20
2016,10,14,00,40,24.20
2016,10,14,00,41,22.50
2016,10,14,00,42,30.60
2016,10,14,00,43,29.00
2016,10,14,00,44,32.20
2016,10,14,00,45,24.20
2016,10,14,00,46,29.00
2016,10,14,00,47,20.90
2016,10,14,00,48,16.10
2016,10,14,00,49,43.50
2016,10,14,00,50,33.80
2016,10,14,00,51,24.20
2016,10,14,00,52,37.00
2016,10,14,00,53,37.00
2016,10,14,00,54,29.00
2016,10,14,00,55,29.00
2016,10,14,00,56,33.80
2016,10,14,00,57,38.60
2016,10,14,00,58,35.40
2016,10,14,00,59,45.10
2016,10,14,01,00,29.00
2016,10,14,01,01,37.00
2016,10,14,01,02,41.80
2016,10,14,01,03,33.80
2016,10,14,01,04,41.80
2016,10,14,01,05,32.20
2016,10,14,01,06,30.60
2016,10,14,01,07,22.50
2016,10,14,01,08,24.20
2016,10,14,01,09,29.00
2016,10,14,01,10,29.00
2016,10,14,01,11,32.20
2016,10,14,01,12,17.70
2016,10,14,01,13,17.70
2016,10,14,01,14,22.50
2016,10,14,01,15,29.00
2016,10,14,01,16,29.00
2016,10,14,01,17,20.90
2016,10,14,01,18,32.20
2016,10,14,01,19,38.60
2016,10,14,01,20,49.90
2016,10,14,01,21,37.00
2016,10,14,01,22,35.40
2016,10,14,01,23,37.00
2016,10,14,01,24,22.50
2016,10,14,01,25,25.70
2016,10,14,01,26,16.10
2016,10,14,01,27,24.20
2016,10,14,01,28,25.70
2016,10,14,01,29,19.30
2016,10,14,01,30,17.70
2016,10,14,01,31,24.20
2016,10,14,01,32,19.30
2016,10,14,01,33,38.60
2016,10,14,01,34,20.90
2016,10,14,01,35,37.00
2016,10,14,01,36,32.20
2016,10,14,01,37,35.40
2016,10,14,01,38,24.20
2016,10,14,01,39,27.40
2016,10,14,01,40,32.20
2016,10,14,01,41,20.90
2016,10,14,01,42,19.30
2016,10,14,01,43,30.60
2016,10,14,01,44,27.40
2016,10,14,01,45,32.20
2016,10,14,01,46,20.90
2016,10,14,01,47,16.10
2016,10,14,01,48,32.20
2016,10,14,01,49,22.50
2016,10,14,01,50,20.90
2016,10,14,01,51,48.30
2016,10,14,01,52,33.80
2016,10,14,01,53,38.60
2016,10,14,01,54,43.50
2016,10,14,01,55,35.40
2016,10,14,01,56,37.00
2016,10,14,01,57,38.60
2016,10,14,01,58,17.70
2016,10,14,01,59,14.50
2016,10,14,02,00,37.00
2016,10,14,02,01,40.20
2016,10,14,02,02,30.60
2016,10,14,02,03,30.60
2016,10,14,02,04,22.50
2016,10,14,02,05,25.70
2016,10,14,02,06,20.90
2016,10,14,02,07,20.90
2016,10,14,02,08,29.00
2016,10,14,02,09,22.50
2016,10,14,02,10,17.70
2016,10,14,02,11,17.70
2016,10,14,02,12,17.70
2016,10,14,02,13,22.50
2016,10,14,02,14,27.40
2016,10,14,02,15,16.10
2016,10,14,02,16,17.70
2016,10,14,02,17,33.80
2016,10,14,02,18,30.60
2016,10,14,02,19,27.40
2016,10,14,02,20,29.00
2016,10,14,02,21,22.50
2016,10,14,02,22,25.70
2016,10,14,02,23,41.80
2016,10,14,02,24,32.20
2016,10,14,02,25,37.00
2016,10,14,02,26,24.20
2016,10,14,02,27,19.30
2016,10,14,02,28,43.50
2016,10,14,02,29,20.90
2016,10,14,02,30,38.60
2016,10,14,02,31,32.20
2016,10,14,02,32,32.20
2016,10,14,02,33,49.90
2016,10,14,02,34,20.90
2016,10,14,02,35,27.40
2016,10,14,02,36,29.00
2016,10,14,02,37,35.40
2016,10,14,02,38,32.20
2016,10,14,02,39,22.50
2016,10,14,02,40,27.40
2016,10,14,02,41,22.50
2016,10,14,02,42,11.30
2016,10,14,02,43,19.30
2016,10,14,02,44,19.30
2016,10,14,02,45,24.20
2016,10,14,02,46,9.60
2016,10,14,02,47,24.20
2016,10,14,02,48,24.20
2016,10,14,02,49,19.30
2016,10,14,02,50,22.50
2016,10,14,02,51,12.90
2016,10,14,02,52,24.20
2016,10,14,02,53,22.50
2016,10,14,02,54,20.90
2016,10,14,02,55,22.50
2016,10,14,02,56,19.30
2016,10,14,02,57,12.90
2016,10,14,02,58,8.10
2016,10,14,02,59,8.10
2016,10,14,03,00,12.90
2016,10,14,03,01,22.50
2016,10,14,03,02,8.10
2016,10,14,03,03,6.40
2016,10,14,03,04,4.80
2016,10,14,03,05,14.50
2016,10,14,03,06,11.30
2016,10,14,03,07,29.00
2016,10,14,03,08,27.40
2016,10,14,03,09,14.50
2016,10,14,03,10,17.70
2016,10,14,03,11,12.90
2016,10,14,03,12,11.30
2016,10,14,03,13,11.30
2016,10,14,03,14,17.70
2016,10,14,03,15,24.20
2016,10,14,03,16,17.70
2016,10,14,03,17,14.50
2016,10,14,03,18,9.60
2016,10,14,03,19,14.50
2016,10,14,03,20,17.70
2016,10,14,03,21,19.30
2016,10,14,03,22,6.40
2016,10,14,03,23,8.10
2016,10,14,03,24,4.80
2016,10,14,03,25,6.40
2016,10,14,03,26,14.50
2016,10,14,03,27,16.10
2016,10,14,03,28,20.90
2016,10,14,03,29,9.60
2016,10,14,03,30,8.10
2016,10,14,03,31,14.50
2016,10,14,03,32,9.60
2016,10,14,03,33,9.60
2016,10,14,03,34,9.60
2016,10,14,03,35,19.30
2016,10,14,03,36,9.60
2016,10,14,03,37,20.90
2016,10,14,03,38,20.90
2016,10,14,03,39,16.10
2016,10,14,03,40,17.70
2016,10,14,03,41,11.30
2016,10,14,03,42,8.10
2016,10,14,03,43,16.10
2016,10,14,03,44,30.60
2016,10,14,03,45,6.40
2016,10,14,03,46,12.90
2016,10,14,03,47,27.40
2016,10,14,03,48,11.30
2016,10,14,03,49,6.40
2016,10,14,03,50,6.40
2016,10,14,03,51,6.40
2016,10,14,03,52,4.80
2016,10,14,03,53,14.50
2016,10,14,03,54,9.60
2016,10,14,04,08,1.60
2016,10,14,04,15,1.60
2016,10,14,04,16,3.20
2016,10,14,04,17,1.60
2016,10,14,04,21,6.40
2016,10,14,04,22,3.20
2016,10,14,04,23,6.40
2016,10,14,04,24,1.60
2016,10,14,04,26,12.90
2016,10,14,04,27,4.80
2016,10,14,04,28,8.10
2016,10,14,04,29,8.10
2016,10,14,04,32,6.40
2016,10,14,04,35,12.90
2016,10,14,04,36,6.40
2016,10,14,04,37,4.80
2016,10,14,04,38,1.60
2016,10,14,04,39,8.10
2016,10,14,04,40,11.30
2016,10,14,04,41,4.80
2016,10,14,04,42,9.60
2016,10,14,04,43,9.60
2016,10,14,04,44,6.40
2016,10,14,04,45,1.60
2016,10,14,04,47,4.80
2016,10,14,04,48,9.60
2016,10,14,04,49,9.60
2016,10,14,04,50,8.10
2016,10,14,04,51,4.80
2016,10,14,04,52,6.40
2016,10,14,04,53,8.10
2016,10,14,04,54,8.10
2016,10,14,04,55,8.10
2016,10,14,04,56,6.40
2016,10,14,04,57,11.30
2016,10,14,04,58,4.80
2016,10,14,05,03,1.60
2016,10,14,05,27,6.40
2016,10,14,05,28,3.20
2016,10,14,05,36,1.60
2016,10,14,05,46,8.10
2016,10,14,05,47,9.60
2016,10,14,05,48,9.60
2016,10,14,05,49,17.70
2016,10,14,05,50,17.70
2016,10,14,05,51,16.10
2016,10,14,05,52,20.90
2016,10,14,05,53,20.90
2016,10,14,05,54,14.50
2016,10,14,05,55,12.90
2016,10,14,05,56,12.90
2016,10,14,05,57,9.60
2016,10,14,05,58,8.10
2016,10,14,05,59,12.90
2016,10,14,06,00,11.30
2016,10,14,06,01,8.10
2016,10,14,06,02,4.80
2016,10,14,06,03,1.60
2016,10,14,06,05,6.40
2016,10,14,06,06,9.60
2016,10,14,06,07,11.30
2016,10,14,06,08,6.40
2016,10,14,06,09,12.90
2016,10,14,06,10,11.30
2016,10,14,06,11,11.30
2016,10,14,06,12,4.80
2016,10,14,06,13,1.60
2016,10,14,06,35,1.60
2016,10,14,06,44,4.80
2016,10,14,06,45,4.80
2016,10,14,06,46,6.40
2016,10,14,06,47,4.80
2016,10,14,06,53,3.20
2016,10,14,06,54,6.40
2016,10,14,06,55,6.40
2016,10,14,06,56,6.40
2016,10,14,06,57,3.20
2016,10,14,07,22,4.80
2016,10,14,07,23,4.80
2016,10,14,07,24,4.80
2016,10,14,07,25,4.80
2016,10,14,07,26,4.80
2016,10,14,07,27,4.80
2016,10,14,07,28,1.60
2016,10,14,07,39,4.80
2016,10,14,07,40,4.80
2016,10,14,07,41,6.40
2016,10,14,07,42,11.30
2016,10,14,07,43,9.60
2016,10,14,07,44,4.80
2016,10,14,07,45,4.80
2016,10,14,07,58,1.60
2016,10,14,08,00,3.20
2016,10,14,08,01,3.20
2016,10,14,08,02,1.60
2016,10,14,08,05,3.20
2016,10,14,08,06,4.80
2016,10,14,08,07,6.40
2016,10,14,08,08,4.80
2016,10,14,08,09,4.80
2016,10,14,08,14,1.60
2016,10,14,08,15,4.80
2016,10,14,08,16,4.80
2016,10,14,08,17,3.20
2016,10,14,08,18,1.60
2016,10,14,08,25,1.60
2016,10,14,08,30,4.80
2016,10,14,08,31,9.60
2016,10,14,08,32,9.60
2016,10,14,08,33,9.60
2016,10,14,08,34,8.10
2016,10,14,08,35,3.20
2016,10,14,08,39,1.60
2016,10,14,08,40,6.40
2016,10,14,08,41,6.40
2016,10,14,08,42,3.20
2016,10,14,08,43,1.60
2016,10,14,08,48,1.60
2016,10,14,08,52,6.40
2016,10,14,08,53,8.10
2016,10,14,08,54,12.90
2016,10,14,08,55,17.70
2016,10,14,08,56,16.10
2016,10,14,08,57,4.80
2016,10,14,08,58,1.60
2016,10,14,09,00,6.40
2016,10,14,09,01,6.40
2016,10,14,09,02,4.80
2016,10,14,09,03,4.80
2016,10,14,09,04,4.80
2016,10,14,09,05,3.20
2016,10,14,09,06,3.20
2016,10,14,09,12,1.60
2016,10,14,09,15,3.20
2016,10,14,09,18,1.60
2016,10,14,09,56,6.40
2016,10,14,09,57,6.40
2016,10,14,09,58,1.60
2016,10,14,10,27,6.40
2016,10,14,10,28,8.10
2016,10,14,10,29,3.20
2016,10,14,10,37,8.10
2016,10,14,10,38,4.80
2016,10,14,10,39,3.20
2016,10,14,10,49,4.80
2016,10,14,10,50,9.60
2016,10,14,10,51,3.20
2016,10,14,10,53,4.80
2016,10,14,10,54,4.80
2016,10,14,10,55,4.80
2016,10,14,10,56,6.40
2016,10,14,11,21,6.40
2016,10,14,11,22,6.40
2016,10,14,11,23,1.60
2016,10,14,11,24,6.40
2016,10,14,11,25,1.60
2016,10,14,11,26,4.80
2016,10,14,11,27,1.60
2016,10,14,11,29,11.30
2016,10,14,11,30,11.30
2016,10,14,11,31,11.30
2016,10,14,11,32,8.10
2016,10,14,11,33,1.60
2016,10,14,11,34,8.10
2016,10,14,11,35,6.40
2016,10,14,11,36,1.60
2016,10,14,11,44,1.60
2016,10,14,11,46,8.10
2016,10,14,11,47,19.30
2016,10,14,11,48,12.90
2016,10,14,11,49,9.60
2016,10,14,11,50,8.10
2016,10,14,11,51,8.10
2016,10,14,11,52,6.40
2016,10,14,11,53,6.40
2016,10,14,11,57,12.90
2016,10,14,11,58,12.90
2016,10,14,11,59,8.10
2016,10,14,12,00,11.30
2016,10,14,12,01,16.10
2016,10,14,12,02,11.30
2016,10,14,12,03,1.60
2016,10,14,12,04,8.10
2016,10,14,12,05,3.20
2016,10,14,12,06,6.40
2016,10,14,12,07,6.40
2016,10,14,12,08,8.10
2016,10,14,12,09,9.60
2016,10,14,12,10,6.40
2016,10,14,12,11,8.10
2016,10,14,12,15,11.30
2016,10,14,12,16,4.80
2016,10,14,12,17,8.10
2016,10,14,12,18,9.60
2016,10,14,12,19,12.90
2016,10,14,12,20,6.40
2016,10,14,12,22,12.90
2016,10,14,12,23,4.80
2016,10,14,12,24,9.60
2016,10,14,12,25,11.30
2016,10,14,12,26,11.30
2016,10,14,12,27,1.60
2016,10,14,12,30,1.60
2016,10,14,12,34,8.10
2016,10,14,12,35,4.80
2016,10,14,12,36,4.80
2016,10,14,12,37,6.40
2016,10,14,12,38,3.20
2016,10,14,12,39,9.60
2016,10,14,12,40,3.20
2016,10,14,12,42,6.40
2016,10,14,12,43,8.10
2016,10,14,12,44,9.60
2016,10,14,12,45,1.60
2016,10,14,12,46,12.90
2016,10,14,12,47,4.80
2016,10,14,12,50,1.60
2016,10,14,12,51,9.60
2016,10,14,12,52,11.30
2016,10,14,12,53,9.60
2016,10,14,12,54,9.60
2016,10,14,12,55,3.20
2016,10,14,12,56,3.20
2016,10,14,12,57,6.40
2016,10,14,12,58,8.10
2016,10,14,13,00,1.60
2016,10,14,13,01,9.60
2016,10,14,13,02,16.10
2016,10,14,13,03,8.10
2016,10,14,13,04,8.10
2016,10,14,13,05,6.40
2016,10,14,13,06,17.70
2016,10,14,13,07,9.60
2016,10,14,13,08,6.40
2016,10,14,13,09,6.40
2016,10,14,13,10,9.60
2016,10,14,13,11,4.80
2016,10,14,13,13,1.60
2016,10,14,13,14,8.10
2016,10,14,13,15,6.40
2016,10,14,13,16,6.40
2016,10,14,13,17,11.30
2016,10,14,13,18,8.10
2016,10,14,13,19,8.10
2016,10,14,13,20,8.10
2016,10,14,13,21,9.60
2016,10,14,13,22,9.60
2016,10,14,13,23,1.60
2016,10,14,13,24,19.30
2016,10,14,13,25,20.90
2016,10,14,13,26,9.60
2016,10,14,13,27,11.30
2016,10,14,13,28,4.80
2016,10,14,13,29,11.30
2016,10,14,13,30,14.50
2016,10,14,13,31,8.10
2016,10,14,13,32,9.60
2016,10,14,13,33,11.30
2016,10,14,13,34,12.90
2016,10,14,13,35,12.90
2016,10,14,13,36,9.60
2016,10,14,13,37,8.10
2016,10,14,13,38,9.60
2016,10,14,13,39,9.60
2016,10,14,13,40,14.50
2016,10,14,13,41,17.70
2016,10,14,13,42,17.70
2016,10,14,13,43,19.30
2016,10,14,13,44,25.70
2016,10,14,13,45,9.60
2016,10,14,13,46,33.80
2016,10,14,13,47,27.40
2016,10,14,13,48,24.20
2016,10,14,13,49,17.70
2016,10,14,13,50,12.90
2016,10,14,13,51,3.20
2016,10,14,13,52,22.50
2016,10,14,13,53,22.50
2016,10,14,13,54,17.70
2016,10,14,13,55,17.70
2016,10,14,13,56,24.20
2016,10,14,13,57,20.90
2016,10,14,13,58,14.50
2016,10,14,13,59,14.50
2016,10,14,14,00,8.10
2016,10,14,14,01,12.90
2016,10,14,14,02,14.50
2016,10,14,14,03,16.10
2016,10,14,14,04,17.70
2016,10,14,14,05,37.00
2016,10,14,14,06,20.90
2016,10,14,14,07,19.30
2016,10,14,14,08,22.50
2016,10,14,14,09,27.40
2016,10,14,14,10,46.70
2016,10,14,14,11,17.70
2016,10,14,14,12,27.40
2016,10,14,14,13,29.00
2016,10,14,14,14,46.70
2016,10,14,14,15,32.20
2016,10,14,14,16,22.50
2016,10,14,14,17,35.40
2016,10,14,14,18,30.60
2016,10,14,14,19,20.90
2016,10,14,14,20,22.50
2016,10,14,14,21,27.40
2016,10,14,14,22,20.90
2016,10,14,14,23,33.80
2016,10,14,14,24,22.50
2016,10,14,14,25,22.50
2016,10,14,14,26,37.00
2016,10,14,14,27,40.20
2016,10,14,14,28,20.90
2016,10,14,14,29,29.00
2016,10,14,14,30,43.50
2016,10,14,14,31,38.60
2016,10,14,14,32,19.30
2016,10,14,14,33,27.40
2016,10,14,14,34,45.10
2016,10,14,14,35,74.00
2016,10,14,14,36,32.20
2016,10,14,14,37,30.60
2016,10,14,14,38,25.70
2016,10,14,14,39,30.60
2016,10,14,14,40,32.20
2016,10,14,14,41,29.00
2016,10,14,14,42,19.30
2016,10,14,14,43,35.40
2016,10,14,14,44,45.10
2016,10,14,14,45,46.70
2016,10,14,14,46,45.10
2016,10,14,14,47,37.00
2016,10,14,14,48,51.50
2016,10,14,14,49,51.50
2016,10,14,14,50,46.70
2016,10,14,14,51,41.80
2016,10,14,14,52,43.50
2016,10,14,14,53,54.70
2016,10,14,14,54,49.90
2016,10,14,14,55,67.60
2016,10,14,14,56,49.90
2016,10,14,14,57,53.10
2016,10,14,18,39,29.00
2016,10,14,18,40,33.80
2016,10,14,18,41,12.90
2016,10,14,18,42,11.30
2016,10,14,18,43,11.30
2016,10,14,18,44,12.90
2016,10,14,18,45,8.10
2016,10,14,18,46,9.60
2016,10,14,18,47,20.90
2016,10,14,18,48,16.10
2016,10,14,18,49,6.40
2016,10,14,18,50,12.90
2016,10,14,18,51,14.50
2016,10,14,18,52,8.10
2016,10,14,18,53,9.60
2016,10,14,18,54,9.60
2016,10,14,18,55,8.10
2016,10,14,18,56,11.30
2016,10,14,18,57,8.10
2016,10,14,18,58,9.60
2016,10,14,18,59,4.80
2016,10,14,19,02,1.60
2016,10,14,19,32,3.20
2016,10,14,19,33,3.20
2016,10,14,19,34,3.20
2016,10,14,19,50,1.60
2016,10,14,19,51,4.80
2016,10,14,19,52,6.40
2016,10,14,19,53,4.80
2016,10,14,19,54,4.80
2016,10,14,19,55,8.10
2016,10,14,19,56,4.80
2016,10,14,19,58,6.40
2016,10,14,19,59,4.80
2016,10,14,20,00,4.80
2016,10,14,20,01,4.80
2016,10,14,20,02,4.80
2016,10,14,20,03,9.60
2016,10,14,20,04,9.60
2016,10,14,20,12,1.60
2016,10,14,20,14,1.60
2016,10,14,20,19,6.40
2016,10,14,20,20,3.20
2016,10,14,20,26,1.60
2016,10,14,20,28,1.60
2016,10,14,20,30,1.60
2016,10,14,20,35,4.80
2016,10,14,20,36,4.80
2016,10,14,20,37,6.40
2016,10,14,20,38,6.40
2016,10,14,20,39,4.80
2016,10,14,20,41,6.40
2016,10,14,20,42,1.60
2016,10,14,20,46,6.40
2016,10,14,20,47,6.40
2016,10,14,20,48,11.30
2016,10,14,20,49,4.80
2016,10,14,20,50,1.60
2016,10,14,20,51,4.80
2016,10,14,20,56,6.40
2016,10,14,20,58,8.10
2016,10,14,20,59,4.80
2016,10,14,21,00,4.80
2016,10,14,21,01,3.20
2016,10,14,21,02,4.80
2016,10,14,21,03,4.80
2016,10,14,21,07,1.60
2016,10,14,21,08,6.40
2016,10,14,21,09,6.40
2016,10,14,21,10,9.60
2016,10,14,21,11,6.40
2016,10,14,21,12,6.40
2016,10,14,21,13,8.10
2016,10,14,21,14,4.80
2016,10,14,21,15,4.80
2016,10,14,21,16,4.80
2016,10,14,21,17,4.80
2016,10,14,21,18,1.60
2016,10,14,21,19,8.10
2016,10,14,21,20,9.60
2016,10,14,21,21,8.10
2016,10,14,21,22,11.30
2016,10,14,21,23,9.60
2016,10,14,21,24,3.20
2016,10,14,21,25,8.10
2016,10,14,21,26,9.60
2016,10,14,21,27,6.40
2016,10,14,21,28,8.10
2016,10,14,21,29,6.40
2016,10,14,21,30,1.60
2016,10,14,21,31,6.40
2016,10,14,21,32,4.80
2016,10,14,21,33,1.60
2016,10,14,21,34,6.40
2016,10,14,21,35,9.60
2016,10,14,21,36,8.10
2016,10,14,21,37,11.30
2016,10,14,21,38,14.50
2016,10,14,21,39,9.60
2016,10,14,21,40,6.40
2016,10,14,21,41,3.20
2016,10,14,21,43,6.40
2016,10,14,21,44,4.80
2016,10,14,21,45,8.10
2016,10,14,21,46,3.20
2016,10,14,21,48,1.60
2016,10,14,21,50,1.60
2016,10,14,21,51,9.60
2016,10,14,21,52,6.40
2016,10,14,21,53,3.20
2016,10,14,21,54,8.10
2016,10,14,21,55,4.80
2016,10,14,21,56,9.60
2016,10,14,21,57,6.40
2016,10,14,21,58,4.80
2016,10,14,21,59,1.60
2016,10,14,22,02,3.20
2016,10,14,22,09,9.60
2016,10,14,22,10,11.30
2016,10,14,22,11,11.30
2016,10,14,22,12,8.10
2016,10,14,22,13,8.10
2016,10,14,22,14,8.10
2016,10,14,22,15,9.60
2016,10,14,22,16,8.10
2016,10,14,22,17,11.30
2016,10,14,22,18,6.40
2016,10,14,22,19,6.40
2016,10,14,22,21,1.60
2016,10,14,22,22,6.40
2016,10,14,22,23,8.10
2016,10,14,22,26,3.20
2016,10,14,22,27,3.20
2016,10,14,22,32,1.60
2016,10,14,22,47,11.30
2016,10,14,22,48,9.60
2016,10,14,22,49,3.20
2016,10,14,23,05,1.60
2016,10,14,23,44,6.40
2016,10,14,23,45,3.20
2016,10,14,23,46,3.20
2016,10,14,23,47,3.20
2016,10,14,23,49,1.60
2016,10,14,23,52,1.60
2016,10,14,23,53,4.80
2016,10,14,23,54,4.80
2016,10,14,23,55,4.80
2016,10,14,23,56,3.20
2016,10,14,23,57,3.20
2016,10,14,23,58,3.20
